Weather History for Buckeye, AZ

Change the Weather History Date:

Thursday, May 10, 2012

  Actual Average (KGYR) Record (KGYR)
Temperature  
Mean Temperature 26 °C -  
Max Temperature 35 °C 32 °C 40 °C (2000)
Min Temperature 16 °C 16 °C 8 °C (2003)
Cooling Degree Days 12    
Growing Degree Days 28 (Base 50)    
Moisture  
Dew Point 4 °C    
Average Humidity 30    
Maximum Humidity 63    
Minimum Humidity 11    
Precipitation  
Precipitation 0.00 mm - - ()
Sea Level Pressure  
Sea Level Pressure 1009 hPa    
Wind  
Wind Speed 10 km/h (South)    
Max Wind Speed 24 km/h    
Max Gust Speed 27 km/h    
Visibility 16 kilometers    
Events      
Averages and records for this station are not official NWS values.
T = Trace of Precipitation, MM = Missing Value Source: NWS Daily Summary

Daily Weather History Graph

Daily Weather History Graph

Search for Another Location

Airport:

Trip Planner

Search our weather history database for the weather conditions in past years. The results will help you decide how hot, cold, wet, or windy it might be!

Date:

Astronomy

May. 10, 2012 Rise Set
Actual Time 5:33 AM MST 7:20 PM MST
Civil Twilight 5:06 AM MST 7:47 PM MST
Nautical Twilight 4:34 AM MST 8:20 PM MST
Astronomical Twilight 3:59 AM MST 8:55 PM MST
Moon No Moon Rise 10:02 AM MST (5/10)
Length of Visible Light 14h 41m
Length of Day
13h 46m
Waning Gibbous, 72% of the Moon is Illuminated
May 10
Waning Gibbous
May 12
Last Quarter
May 20
New
May 28
First Quarter
Jun 4
Full

Hourly Weather History & Observations

Time (MST) Temp. Dew Point Humidity Pressure Visibility Wind Dir Wind Speed Gust Speed Precip Events Conditions
12:15 AM 21.0 °C 6.0 °C 38% 1011.4 hPa 16.1 km NNE 9.3 km/h / 2.6 m/s - N/A   Overcast
12:35 AM 20.0 °C 6.0 °C 40% 1011.4 hPa 16.1 km Calm Calm - N/A   Overcast
12:55 AM 19.0 °C 8.0 °C 49% 1011.4 hPa 16.1 km East 7.4 km/h / 2.1 m/s - N/A   Overcast
1:15 AM 19.0 °C 8.0 °C 49% 1011.1 hPa 16.1 km East 7.4 km/h / 2.1 m/s - N/A   Overcast
1:35 AM 18.0 °C 9.0 °C 56% 1011.1 hPa 16.1 km East 7.4 km/h / 2.1 m/s - N/A   Overcast
1:55 AM 18.0 °C 9.0 °C 56% 1011.1 hPa 16.1 km SSE 9.3 km/h / 2.6 m/s - N/A   Overcast
2:15 AM 16.0 °C 9.0 °C 63% 1011.1 hPa 16.1 km Calm Calm - N/A   Overcast
2:35 AM 17.0 °C 9.0 °C 59% 1011.1 hPa 16.1 km East 7.4 km/h / 2.1 m/s - N/A   Overcast
2:55 AM 18.0 °C 9.0 °C 56% 1011.1 hPa 16.1 km ENE 7.4 km/h / 2.1 m/s - N/A   Overcast
3:15 AM 17.0 °C 8.0 °C 55% 1011.1 hPa 16.1 km NNW 7.4 km/h / 2.1 m/s - N/A   Overcast
3:55 AM 17.0 °C 5.0 °C 45% 1010.7 hPa 16.1 km NNE 9.3 km/h / 2.6 m/s - N/A   Overcast
4:15 AM 17.0 °C 6.0 °C 48% 1011.1 hPa 16.1 km North 9.3 km/h / 2.6 m/s - N/A   Overcast
4:35 AM 16.0 °C 7.0 °C 55% 1011.1 hPa 16.1 km Calm Calm - N/A   Overcast
4:55 AM 17.0 °C 7.0 °C 52% 1011.4 hPa 16.1 km East 5.6 km/h / 1.5 m/s - N/A   Overcast
5:15 AM 17.0 °C 9.0 °C 59% 1011.4 hPa 16.1 km East 7.4 km/h / 2.1 m/s - N/A   Scattered Clouds
5:35 AM 17.0 °C 9.0 °C 59% 1011.4 hPa 16.1 km East 11.1 km/h / 3.1 m/s - N/A   Clear
5:55 AM 17.0 °C 9.0 °C 59% 1011.4 hPa 16.1 km NE 7.4 km/h / 2.1 m/s - N/A   Clear
6:15 AM 17.0 °C 8.0 °C 55% 1011.7 hPa 14.5 km NNW 5.6 km/h / 1.5 m/s - N/A   Clear
6:35 AM 19.0 °C 8.0 °C 49% 1011.7 hPa 12.9 km North 7.4 km/h / 2.1 m/s - N/A   Clear
6:55 AM 20.0 °C 8.0 °C 46% 1012.1 hPa 16.1 km ENE 5.6 km/h / 1.5 m/s - N/A   Clear
7:15 AM 20.0 °C 9.0 °C 49% 1012.1 hPa 16.1 km ESE 13.0 km/h / 3.6 m/s - N/A   Clear
7:55 AM 22.0 °C 10.0 °C 46% 1012.1 hPa 16.1 km East 13.0 km/h / 3.6 m/s - N/A   Clear
8:15 AM 23.0 °C 9.0 °C 41% 1012.1 hPa 16.1 km ESE 11.1 km/h / 3.1 m/s - N/A   Clear
8:55 AM 24.0 °C 10.0 °C 41% 1011.7 hPa 16.1 km ESE 16.7 km/h / 4.6 m/s - N/A   Clear
9:15 AM 24.0 °C 9.0 °C 38% 1011.7 hPa 14.5 km ESE 16.7 km/h / 4.6 m/s - N/A   Clear
9:35 AM 25.0 °C 9.0 °C 36% 1011.7 hPa 16.1 km ESE 14.8 km/h / 4.1 m/s - N/A   Clear
10:15 AM 26.0 °C 8.0 °C 32% 1011.7 hPa 16.1 km SSE 9.3 km/h / 2.6 m/s - N/A   Clear
10:35 AM 27.0 °C 8.0 °C 30% 1011.4 hPa 16.1 km SE 14.8 km/h / 4.1 m/s - N/A   Clear
10:55 AM 27.0 °C 7.0 °C 28% 1011.1 hPa 16.1 km SSE 11.1 km/h / 3.1 m/s - N/A   Clear
11:15 AM 27.0 °C 6.0 °C 26% 1010.7 hPa 16.1 km SE 9.3 km/h / 2.6 m/s - N/A   Clear
11:35 AM 28.0 °C 7.0 °C 26% 1010.7 hPa 16.1 km SE 16.7 km/h / 4.6 m/s - N/A   Clear
11:55 AM 28.0 °C 5.0 °C 23% 1010.4 hPa 16.1 km South 9.3 km/h / 2.6 m/s - N/A   Clear
12:15 PM 29.0 °C 5.0 °C 22% 1010.0 hPa 16.1 km Calm Calm - N/A   Clear
12:35 PM 29.0 °C 5.0 °C 22% 1009.7 hPa 16.1 km ESE 5.6 km/h / 1.5 m/s - N/A   Clear
12:55 PM 30.0 °C 5.0 °C 20% 1009.4 hPa 16.1 km East 9.3 km/h / 2.6 m/s - N/A   Clear
1:15 PM 30.0 °C 5.0 °C 20% 1009.0 hPa 16.1 km East 7.4 km/h / 2.1 m/s - N/A   Clear
1:35 PM 31.0 °C 5.0 °C 19% 1008.7 hPa 16.1 km SSE 9.3 km/h / 2.6 m/s - N/A   Clear
1:55 PM 31.0 °C 5.0 °C 19% 1008.7 hPa 16.1 km SSW 7.4 km/h / 2.1 m/s - N/A   Clear
2:15 PM 32.0 °C 3.0 °C 16% 1008.4 hPa 16.1 km West 9.3 km/h / 2.6 m/s - N/A   Clear
2:35 PM 33.0 °C 4.0 °C 16% 1007.7 hPa 16.1 km SSE 13.0 km/h / 3.6 m/s - N/A   Clear
2:55 PM 34.0 °C 2.0 °C 13% 1007.3 hPa 16.1 km SW 18.5 km/h / 5.1 m/s 27.8 km/h / 7.7 m/s N/A   Clear
3:15 PM 34.0 °C 0.0 °C 11% 1006.7 hPa 16.1 km West 16.7 km/h / 4.6 m/s - N/A   Clear
3:35 PM 34.0 °C 0.0 °C 11% 1006.3 hPa 16.1 km WSW 24.1 km/h / 6.7 m/s - N/A   Clear
3:55 PM 34.0 °C 0.0 °C 11% 1006.3 hPa 16.1 km SW 14.8 km/h / 4.1 m/s - N/A   Clear
4:15 PM 35.0 °C 0.0 °C 11% 1006.0 hPa 16.1 km SW 16.7 km/h / 4.6 m/s - N/A   Clear
4:35 PM 35.0 °C 1.0 °C 12% 1006.0 hPa 16.1 km SW 13.0 km/h / 3.6 m/s - N/A   Clear
4:55 PM 35.0 °C 0.0 °C 11% 1006.0 hPa 16.1 km SSW 16.7 km/h / 4.6 m/s - N/A   Clear
5:15 PM 35.0 °C 0.0 °C 11% 1005.6 hPa 16.1 km WSW 11.1 km/h / 3.1 m/s - N/A   Clear
5:35 PM 34.0 °C 0.0 °C 11% 1005.6 hPa 16.1 km SW 16.7 km/h / 4.6 m/s - N/A   Clear
5:55 PM 34.0 °C 1.0 °C 12% 1005.3 hPa 16.1 km SW 20.4 km/h / 5.7 m/s 27.8 km/h / 7.7 m/s N/A   Clear
6:15 PM 33.0 °C 2.0 °C 14% 1005.3 hPa 16.1 km WSW 20.4 km/h / 5.7 m/s - N/A   Clear
6:35 PM 33.0 °C 1.0 °C 13% 1005.3 hPa 16.1 km SW 18.5 km/h / 5.1 m/s - N/A   Clear
6:55 PM 32.0 °C 2.0 °C 15% 1005.3 hPa 16.1 km SSW 14.8 km/h / 4.1 m/s - N/A   Clear
7:15 PM 30.0 °C 3.0 °C 18% 1005.6 hPa 16.1 km SSW 11.1 km/h / 3.1 m/s - N/A   Clear
7:35 PM 29.0 °C 3.0 °C 19% 1005.6 hPa 16.1 km SSW 11.1 km/h / 3.1 m/s - N/A   Clear
7:55 PM 30.0 °C 2.0 °C 17% 1006.0 hPa 16.1 km SSW 13.0 km/h / 3.6 m/s - N/A   Clear
8:15 PM 28.0 °C 3.0 °C 20% 1006.0 hPa 16.1 km SSW 11.1 km/h / 3.1 m/s - N/A   Clear
8:35 PM 27.0 °C 3.0 °C 21% 1006.3 hPa 16.1 km SSW 7.4 km/h / 2.1 m/s - N/A   Clear
8:55 PM 27.0 °C 4.0 °C 23% 1006.3 hPa 16.1 km SSW 9.3 km/h / 2.6 m/s - N/A   Clear
9:15 PM 27.0 °C 2.0 °C 20% 1006.3 hPa 16.1 km SSW 11.1 km/h / 3.1 m/s - N/A   Clear
9:35 PM 26.0 °C 1.0 °C 20% 1006.7 hPa 16.1 km SW 9.3 km/h / 2.6 m/s - N/A   Clear
9:55 PM 27.0 °C 0.0 °C 17% 1006.7 hPa 16.1 km SW 13.0 km/h / 3.6 m/s - N/A   Clear
10:15 PM 25.0 °C 0.0 °C 19% 1006.7 hPa 16.1 km WSW 5.6 km/h / 1.5 m/s - N/A   Clear
10:35 PM 25.0 °C -2.0 °C 17% 1007.0 hPa 16.1 km West 7.4 km/h / 2.1 m/s - N/A   Clear
10:55 PM 24.0 °C -2.0 °C 18% 1007.3 hPa 16.1 km NW 9.3 km/h / 2.6 m/s - N/A   Clear
11:15 PM 25.0 °C -2.0 °C 17% 1007.3 hPa 16.1 km WSW 13.0 km/h / 3.6 m/s - N/A   Clear
11:35 PM 25.0 °C -1.0 °C 18% 1007.3 hPa 16.1 km SW 13.0 km/h / 3.6 m/s - N/A   Clear
11:55 PM 24.0 °C 1.0 °C 22% 1007.3 hPa 16.1 km WSW 14.8 km/h / 4.1 m/s - N/A   Clear